National Weather Service Raw Text Product

Displaying AFOS PIL: RWRIA Received: 2018-07-12 12:00 UTC


445 
ASUS43 KDMX 121206
RWRIA 

WEATHER ROUNDUP FOR IOWA
NATIONAL WEATHER SERVICE DES MOINES IA
700 AM CDT THU JUL 12 2018

NOTE: "FAIR" INDICATES FEW OR NO CLOUDS BELOW 12,000 FEET WITH NO
SIGNIFICANT WEATHER AND/OR OBSTRUCTIONS TO VISIBILITY.

* - THESE STATIONS ARE NOT NWS STATIONS...THUS NOT UNDER NWS
QUALITY CONTROL.  THEY ALSO DO NOT REPORT WEATHER SUCH 
AS PRECIPITATION OR FOG.  

IAZ001>003-012>014-020>022-031>034-043>046-121300-
   NORTHWEST IOWA
  
CITY           SKY/WX    TMP DP  RH WIND       PRES   REMARKS
CARROLL *      SUNNY     75  70  83 S9        30.04R                  
CHEROKEE *     CLEAR     76  72  89 S6        30.01R                  
DENISON *      CLEAR     75  70  83 S7G14     30.05R                  
LE MARS *      CLEAR     75  72  88 S9        29.99R                  
ORANGE CITY *  CLEAR     75  72  88 S7        30.00R                  
SHELDON *      CLEAR     75  73  94 S10       29.99R                  
SIOUX CITY     CLEAR     76  71  85 SE5       29.99R                  
6HR MIN TEMP:  75; 6HR MAX TEMP:  81;                                

STORM LAKE *   SUNNY     73  72  94 VRB6      30.03R                  
$$
 
IAZ055>058-069>071-079>083-090>094-121300-
   SOUTHWEST IOWA
  
CITY           SKY/WX    TMP DP  RH WIND       PRES   REMARKS
ATLANTIC *     CLEAR     75  68  78 S5        30.05R                  
AUDUBON *      CLEAR     75  70  83 S6        30.06S                  
CLARINDA *     CLEAR     73  70  88 CALM      30.07R                  
COUNCIL BLFS * CLEAR     75  70  83 S8        30.04R                  
CRESTON *      SUNNY     72  63  73 S6        30.08S                  
HARLAN  *        N/A     75  70  83 S7        30.05R                  
LAMONI         SUNNY     73  61  65 S6        30.07S                  
6HR MIN TEMP:  72; 6HR MAX TEMP:  77;                                

RED OAK *      CLEAR     75  70  83 S6        30.05R                  
SHENANDOAH *   CLEAR     75  72  88 S7        30.04S                  
$$
 
IAZ047>049-059>061-072>074-084-121300-
   CENTRAL IOWA
  
CITY           SKY/WX    TMP DP  RH WIND       PRES   REMARKS
AMES           SUNNY     70  64  81 SE3       30.07R                  
6HR MIN TEMP:  69; 6HR MAX TEMP:  75;                                

ANKENY *       SUNNY     73  63  68 S6        30.07R                  
BOONE *        SUNNY     73  63  68 VRB5      30.06R                  
CHARITON *     SUNNY     72  63  73 S8        30.08R                  
DES MOINES     MOSUNNY   73  63  70 S6        30.06R                  
6HR MIN TEMP:  73; 6HR MAX TEMP:  78;                                

GRINNELL*      SUNNY     69  64  83 SE5       30.11R                  
KNOXVILLE *    SUNNY     73  63  68 S9        30.06S                  
MARSHALLTOWN   MOSUNNY   71  66  84 SE7       30.07R                  
6HR MIN TEMP:  70; 6HR MAX TEMP:  73;                                

NEWTON *       SUNNY     68  64  88 SE3       30.09R                  
PELLA *        SUNNY     73  63  72 S3        30.09R                  
PERRY *        FAIR      72  67  83 MISG      30.06R                  
$$
 
IAZ004>006-015-016-023>025-035-036-121300-
   NORTH CENTRAL IOWA
  
CITY           SKY/WX    TMP DP  RH WIND       PRES   REMARKS
ALGONA *       SUNNY     73  68  83 S10       30.03R                  
CLARION *      SUNNY     72  64  78 S10       30.05S                  
ESTHERVILLE    SUNNY     73  71  93 S10       30.00R                  
6HR MIN TEMP:  72; 6HR MAX TEMP:  78;                                

FORT DODGE *   SUNNY     75  66  73 S12       30.05R                  
MASON CITY     SUNNY     71  64  78 S12       30.05S                  
6HR MIN TEMP:  70; 6HR MAX TEMP:  73;                                

FOREST CITY *  FAIR      73  64  73 S12G17    30.04R                  
WEBSTER CITY * SUNNY     72  64  78 S7        30.04R                  
IOWA FALLS *   FAIR      71  64  80 S7        30.08S                  
$$

IAZ007>011-017>019-026>030-037>042-050>054-066-121300-
   NORTHEAST IOWA
  
CITY           SKY/WX    TMP DP  RH WIND       PRES   REMARKS
CEDAR RAPIDS   FAIR      71  68  90 S8        30.10S                  
6HR MIN TEMP:  69; 6HR MAX TEMP:  72;                                

CHARLES CITY * CLOUDY    72  64  78 S13       30.07R                  
CLINTON *      FAIR      68  66  93 S5        30.13F                  
DECORAH *      FAIR      73  66  78 S9G16     30.07R                  
DUBUQUE        FAIR      69  65  86 S13       30.11F                  
6HR MIN TEMP:  65; 6HR MAX TEMP:  71;                                

MONTICELLO *   FAIR      70  68  94 S5        30.10S                  
OELWEIN *      FAIR      70  68  94 S9        30.09S                  
WATERLOO       PTSUNNY   70  65  84 S12       30.06S                  
6HR MIN TEMP:  69; 6HR MAX TEMP:  74;                                

$$
 
IAZ064-065-067-068-078-121300-
   EAST CENTRAL IOWA
  
CITY           SKY/WX    TMP DP  RH WIND       PRES   REMARKS
DAVENPORT      FAIR      72  63  73 S9        30.14S                  
6HR MIN TEMP:  66; 6HR MAX TEMP:  73;                                

IOWA CITY      FAIR      69  67  93 MISG      30.13R                  
6HR MIN TEMP:  67; 6HR MAX TEMP:  71;                                

MT. PLEASANT * SUNNY     70  68  94 CALM      30.13R                  
MUSCATINE *    FAIR      70  66  88 CALM      30.12S                  
QUAD CITIES    FAIR      70  66  87 E6        30.13R                  
6HR MIN TEMP:  66; 6HR MAX TEMP:  72;                                

$$
 
IAZ062-063-075>077-085>089-095>099-121300-
   SOUTHEAST IOWA
  
CITY           SKY/WX    TMP DP  RH WIND       PRES   REMARKS
BURLINGTON     SUNNY     72  67  84 S7        30.12R                  
6HR MIN TEMP:  71; 6HR MAX TEMP:  75;                                

FAIRFIELD *    SUNNY     72  66  83 S7        30.10R                  
FORT MADISON * SUNNY     72  68  88 S3        30.12R                  
KEOKUK *       SUNNY     72  68  88 SE6       30.10R                  
OSKALOOSA *    FAIR      70  65  86 S6        30.10R                  
CENTERVILLE *    N/A     72  66  83 CALM      30.11R                  
OTTUMWA        SUNNY     72  66  81 S8        30.08R                  
6HR MIN TEMP:  71; 6HR MAX TEMP:  75;                                

WASHINGTON *   SUNNY     68  68 100 E6        30.13R FOG              
$$

ABBREVIATIONS USED IN REMARKS
   TC - TEMPERATURES IN CELSIUS
  WCI - WIND CHILL INDEX
   HX - HEAT INDEX
  VSB - VISIBILITY  
$$

  

701 
ASUS43 KDMX 121201
RWRIA 

WEATHER ROUNDUP FOR IOWA
NATIONAL WEATHER SERVICE DES MOINES IA
700 AM CDT THU JUL 12 2018

NOTE: "FAIR" INDICATES FEW OR NO CLOUDS BELOW 12,000 FEET WITH NO
SIGNIFICANT WEATHER AND/OR OBSTRUCTIONS TO VISIBILITY.

* - THESE STATIONS ARE NOT NWS STATIONS...THUS NOT UNDER NWS
QUALITY CONTROL.  THEY ALSO DO NOT REPORT WEATHER SUCH 
AS PRECIPITATION OR FOG.  

IAZ001>003-012>014-020>022-031>034-043>046-121300-
   NORTHWEST IOWA
  
CITY           SKY/WX    TMP DP  RH WIND       PRES   REMARKS
CARROLL *      SUNNY     75  70  83 S9        30.04R                  
CHEROKEE *     CLEAR     76  72  89 S6        30.01R                  
DENISON *      CLEAR     75  70  83 S7G14     30.05R                  
LE MARS *      CLEAR     75  72  88 S9        29.99R                  
ORANGE CITY *  CLEAR     75  72  88 S7        30.00R                  
SHELDON *      CLEAR     75  73  94 S10       29.99R                  
SIOUX CITY     CLEAR     76  71  85 SE5       29.99R                  
6HR MIN TEMP:  75; 6HR MAX TEMP:  81;                                

STORM LAKE *   SUNNY     73  72  94 VRB6      30.03R                  
$$
 
IAZ055>058-069>071-079>083-090>094-121300-
   SOUTHWEST IOWA
  
CITY           SKY/WX    TMP DP  RH WIND       PRES   REMARKS
ATLANTIC *     CLEAR     75  68  78 S5        30.05R                  
AUDUBON *      CLEAR     75  70  83 S6        30.06S                  
CLARINDA *     CLEAR     73  70  88 CALM      30.07R                  
COUNCIL BLFS * CLEAR     75  70  83 S8        30.04R                  
CRESTON *      SUNNY     72  63  73 S6        30.08S                  
HARLAN  *        N/A     75  70  83 S7        30.05R                  
LAMONI         SUNNY     73  61  65 S6        30.07S                  
6HR MIN TEMP:  72; 6HR MAX TEMP:  77;                                

RED OAK *      CLEAR     75  70  83 S6        30.05R                  
SHENANDOAH *   CLEAR     75  72  88 S7        30.04S                  
$$
 
IAZ047>049-059>061-072>074-084-121300-
   CENTRAL IOWA
  
CITY           SKY/WX    TMP DP  RH WIND       PRES   REMARKS
AMES           SUNNY     70  64  81 SE3       30.07R                  
6HR MIN TEMP:  69; 6HR MAX TEMP:  75;                                

ANKENY *       SUNNY     73  63  68 S6        30.07R                  
BOONE *        SUNNY     73  63  68 VRB5      30.06R                  
CHARITON *     SUNNY     72  63  73 S8        30.08R                  
DES MOINES     MOSUNNY   73  63  70 S6        30.06R                  
6HR MIN TEMP:  73; 6HR MAX TEMP:  78;                                

GRINNELL*      SUNNY     69  64  83 SE5       30.11R                  
KNOXVILLE *    SUNNY     73  63  68 S9        30.06S                  
MARSHALLTOWN   MOSUNNY   71  66  84 SE7       30.07R                  
6HR MIN TEMP:  70; 6HR MAX TEMP:  73;                                

NEWTON *       SUNNY     68  64  88 SE3       30.09R                  
PELLA *        SUNNY     73  63  72 S3        30.09R                  
PERRY *        FAIR      72  67  83 MISG      30.06R                  
$$
 
IAZ004>006-015-016-023>025-035-036-121300-
   NORTH CENTRAL IOWA
  
CITY           SKY/WX    TMP DP  RH WIND       PRES   REMARKS
ALGONA *       SUNNY     73  68  83 S10       30.03R                  
CLARION *      SUNNY     72  64  78 S10       30.05S                  
ESTHERVILLE    SUNNY     73  71  93 S10       30.00R                  
6HR MIN TEMP:  72; 6HR MAX TEMP:  78;                                

FORT DODGE *   SUNNY     75  66  73 S12       30.05R                  
MASON CITY     SUNNY     71  64  78 S12       30.05S                  
6HR MIN TEMP:  70; 6HR MAX TEMP:  73;                                

IOWA FALLS *   FAIR      71  64  80 S7        30.08S                  
$$

IAZ007>011-017>019-026>030-037>042-050>054-066-121300-
   NORTHEAST IOWA
  
CITY           SKY/WX    TMP DP  RH WIND       PRES   REMARKS
CEDAR RAPIDS   FAIR      71  68  90 S8        30.10S                  
6HR MIN TEMP:  69; 6HR MAX TEMP:  72;                                

CHARLES CITY * CLOUDY    72  64  78 S13       30.07R                  
CLINTON *      FAIR      68  66  93 S5        30.13F                  
DECORAH *      FAIR      73  66  78 S9G16     30.07R                  
DUBUQUE        FAIR      69  65  86 S13       30.11F                  
6HR MIN TEMP:  65; 6HR MAX TEMP:  71;                                

MONTICELLO *   FAIR      70  68  94 S5        30.10S                  
OELWEIN *      FAIR      70  68  94 S9        30.09S                  
WATERLOO       PTSUNNY   70  65  84 S12       30.06S                  
6HR MIN TEMP:  69; 6HR MAX TEMP:  74;                                

$$
 
IAZ064-065-067-068-078-121300-
   EAST CENTRAL IOWA
  
CITY           SKY/WX    TMP DP  RH WIND       PRES   REMARKS
DAVENPORT      FAIR      72  63  73 S9        30.14S                  
6HR MIN TEMP:  66; 6HR MAX TEMP:  73;                                

IOWA CITY      FAIR      69  67  93 MISG      30.13R                  
6HR MIN TEMP:  67; 6HR MAX TEMP:  71;                                

MUSCATINE *    FAIR      70  66  88 CALM      30.12S                  
QUAD CITIES    FAIR      70  66  87 E6        30.13R                  
6HR MIN TEMP:  66; 6HR MAX TEMP:  72;                                

$$
 
IAZ062-063-075>077-085>089-095>099-121300-
   SOUTHEAST IOWA
  
CITY           SKY/WX    TMP DP  RH WIND       PRES   REMARKS
BURLINGTON     SUNNY     72  67  84 S7        30.12R                  
6HR MIN TEMP:  71; 6HR MAX TEMP:  75;                                

FAIRFIELD *    SUNNY     72  66  83 S7        30.10R                  
FORT MADISON * SUNNY     72  68  88 S3        30.12R                  
KEOKUK *       SUNNY     72  68  88 SE6       30.10R                  
OSKALOOSA *    FAIR      70  65  86 S6        30.10R                  
CENTERVILLE *    N/A     72  66  83 CALM      30.11R                  
OTTUMWA        SUNNY     72  66  81 S8        30.08R                  
6HR MIN TEMP:  71; 6HR MAX TEMP:  75;                                

WASHINGTON *   SUNNY     68  68 100 E6        30.13R FOG              
$$

ABBREVIATIONS USED IN REMARKS
   TC - TEMPERATURES IN CELSIUS
  WCI - WIND CHILL INDEX
   HX - HEAT INDEX
  VSB - VISIBILITY  
$$